CDT,Max TemperatureF,Mean TemperatureF,Min TemperatureF,Max Dew PointF,MeanDew PointF,Min DewpointF,Max Humidity, Mean Humidity, Min Humidity, Max Sea Level PressureIn, Mean Sea Level PressureIn, Min Sea Level PressureIn, Max VisibilityMiles, Mean VisibilityMiles, Min VisibilityMiles, Max Wind SpeedMPH, Mean Wind SpeedMPH, Max Gust SpeedMPH,PrecipitationIn, CloudCover, Events, WindDirDegrees
2012-10-1,73,62,51,54,46,41,77,63,43,30.01,29.96,29.92,10,10,9,26,10,37,0.00,3,,344
2012-10-2,71,58,44,45,38,34,76,49,25,30.05,29.99,29.92,10,10,10,15,9,20,0.00,0,,336
2012-10-3,78,62,46,48,42,36,71,48,30,29.97,29.93,29.86,10,10,10,23,10,29,0.00,0,,177
2012-10-4,66,58,50,48,39,36,63,55,51,30.28,30.19,29.94,10,10,8,26,14,33,0.00,5,,15
2012-10-5,53,45,37,36,30,27,70,51,35,30.33,30.28,30.25,10,10,10,21,11,28,0.00,5,,28
2012-10-6,44,42,39,32,30,25,75,63,46,30.41,30.34,30.29,10,10,10,18,8,25,0.00,7,,351
2012-10-7,53,40,28,32,27,25,86,57,35,30.36,30.28,30.17,10,10,10,14,7,18,0.00,1,,280
2012-10-8,66,50,35,36,31,27,70,49,28,30.17,30.06,29.95,10,10,10,23,13,31,0.00,0,,201
2012-10-9,66,54,42,45,37,27,71,56,42,30.19,29.97,29.88,10,10,10,26,14,31,0.00,1,,217
2012-10-10,64,50,37,30,27,25,65,43,26,30.30,30.21,30.13,10,10,10,12,5,16,0.00,0,,175
2012-10-11,78,62,46,59,46,28,68,55,47,30.13,30.06,29.98,10,10,10,21,11,25,0.00,4,,160
2012-10-12,66,57,48,55,46,36,88,71,47,30.26,30.15,30.01,10,7,0,17,11,24,0.36,8,Thunderstorm,90
2012-10-13,75,68,60,66,61,54,94,83,73,30.01,29.80,29.61,10,9,2,25,15,75,0.61,6,Thunderstorm,188
2012-10-14,71,62,53,54,45,43,82,58,35,30.07,29.94,29.64,10,10,10,23,12,28,0.00,0,,301
2012-10-15,80,64,48,50,45,39,71,52,32,30.06,29.96,29.82,10,10,9,21,8,24,0.00,0,,216
2012-10-16,78,68,57,54,48,45,68,52,36,29.82,29.68,29.53,10,10,5,18,15,26,0.00,0,,202
2012-10-17,66,57,46,54,41,25,88,55,26,29.82,29.62,29.44,10,10,7,30,12,38,0.00,1,,306
2012-10-18,62,54,46,27,23,21,43,30,20,29.87,29.83,29.78,10,9,4,37,17,48,0.00,1,,294
2012-10-19,62,53,44,32,26,19,53,36,26,29.92,29.86,29.83,10,10,10,24,16,38,0.00,0,,309
2012-10-20,80,61,42,45,37,27,59,43,28,29.85,29.77,29.69,10,10,10,15,9,21,0.00,0,,171
2012-10-21,84,70,55,63,57,45,88,68,45,29.76,29.72,29.66,10,9,1,25,12,32,0.00,1,,156
2012-10-22,73,66,60,63,56,48,83,70,56,29.87,29.80,29.71,10,10,8,25,16,32,0.00,1,,203
2012-10-23,86,74,62,63,58,52,83,62,31,29.83,29.76,29.69,10,10,5,26,18,33,0.00,3,,193
2012-10-24,78,72,66,64,62,61,83,70,57,29.82,29.76,29.68,10,10,10,26,20,34,0.00,5,,190
2012-10-25,69,51,33,61,36,27,87,67,46,30.33,30.03,29.62,10,10,4,28,22,38,0.01,4,,355
2012-10-26,44,36,28,25,23,19,75,59,42,30.53,30.43,30.33,10,10,10,22,15,28,0.00,3,,4
2012-10-27,46,36,26,27,23,19,75,59,40,30.42,30.33,30.23,10,10,3,9,4,,0.00,2,,91
2012-10-28,55,42,28,28,25,21,75,54,35,30.33,30.26,30.20,10,10,10,13,7,,0.00,3,,155
2012-10-29,64,50,37,30,27,23,65,44,28,30.25,30.16,30.07,10,10,9,23,12,30,0.00,1,,173
2012-10-30,69,56,44,37,33,28,57,45,31,30.06,29.98,29.92,10,8,2,12,7,,0.00,1,,133
2012-10-31,66,50,35,36,31,27,70,50,30,30.11,30.05,30.00,10,9,2,9,4,,0.00,0,,155